Regional Weather Roundup
Issued by NWS

Home | Current Version | Previous Version | Graphics & Text | Print | Product List | Glossary On
Versions: 1 2 3 4 5 6 7 8 9 10 11 12 13 14 15 16 17 18 19 20 21 22 23 24 25 26 27 28 29 30 31 32 33 34 35 36 37 38 39 40 41 42 43 44 45 46 47 48 49 50
000
ASUS45 KBOU 122107
RWRCO

WEATHER ROUNDUP FOR COLORADO
NATIONAL WEATHER SERVICE DENVER/BOULDER CO
200 PM MST FRI FEB 12 2016

NOTE: "FAIR" INDICATES FEW OR NO CLOUDS BELOW 12000 FEET WITH NO
SIGNIFICANT WEATHER AND/OR OBSTRUCTIONS TO VISIBILITY.

COZ001>005-013-030-031-122200-
...NORTHWEST COLORADO...

CITY           SKY/WX    TMP DP  RH WIND       PRES   REMARKS
CRAIG          FAIR      33  23  66 CALM      30.36F
HAYDEN         FAIR      30  19  64 CALM      30.36F
MEEKER         FAIR      41  24  51 N5        30.34F
MOUNT WERNER   NOT AVBL
STEAMBOAT SPGS FAIR      35  20  55 CALM      30.36F
WALDEN         FAIR      43  23  45 S9        30.36F
$$

COZ006>008-011-122200-
...WEST CENTRAL VALLEYS...

CITY           SKY/WX    TMP DP  RH WIND       PRES   REMARKS
GRAND JUNCTION FAIR      47  27  45 CALM      30.35F
MONTROSE       FAIR      48  24  39 E3        30.36F
EAGLE          SUNNY     45  19  36 CALM      30.38F
RIFLE          FAIR      40  20  44 CALM      30.36F
DELTA          FAIR      53  22  30 CALM      30.35F
NUCLA          FAIR      50  23  34 CALM      30.40F
$$

COZ017>023-064>068-122200-
...SOUTHWEST COLORADO...

CITY           SKY/WX    TMP DP  RH WIND       PRES   REMARKS
DURANGO        FAIR      45  25  45 NE5       30.37F
CORTEZ         FAIR      53  23  31 CALM      30.36F
PAGOSA SPRINGS FAIR      54  15  21 S3        30.39F
TELLURIDE      FAIR      53  20  27 SW6       30.45F
WOLF CREEK PAS FAIR      39  14  35 NW12      30.57F
$$

COZ009-010-012-014-032>034-037-058>063-122200-
...CENTRAL COLORADO...

CITY           SKY/WX    TMP DP  RH WIND       PRES   REMARKS
ASPEN          FAIR      47  22  37 N7        30.36F
BUENA VISTA    FAIR      54  19  25 SE7       30.34F
COPPER MTN     FAIR      41  19  42 W23G31    30.50F
BERTHOUD PASS  FAIR      30  19  64 NW35G44   30.46F WCI  14
COTTONWOOD PAS FAIR      52  16  24 E5        30.41F
GUNNISON       FAIR      18   9  68 CALM      30.51F
KREMMLING      FAIR      28  14  54 CALM      30.42F
LEADVILLE      FAIR      46  19  34 N14G21    30.41F
MONARCH PASS   FAIR      36  14  41 W23G30    30.61F
SALIDA         NOT AVBL
SUNLIGHT       FAIR      43  19  39 CALM      30.51F
WILKERSON PASS FAIR      45  19  36 SW6       30.49F
$$

COZ069>075-122200-
...SAN LUIS VALLEY/SANGRE DE CRISTO MOUNTAINS...

CITY           SKY/WX    TMP DP  RH WIND       PRES   REMARKS
ALAMOSA        FAIR      52  18  26 SW3       30.38F
LA VETA PASS   FAIR      46  18  31 S10       30.46S
SAGUACHE       FAIR      52  18  25 S5        30.40F
$$

COZ035-036-038>040-122200-
...NORTHERN COLORADO FRONT RANGE...

CITY           SKY/WX    TMP DP  RH WIND       PRES   REMARKS
DENVER INTL AP FAIR      51  31  46 E9        30.24F
DMNS CITY PARK   N/A     54  29  38 N12G17    30.24F
AURORA         MOSUNNY   55  34  44 NE9       30.24F
FRONT RANGE AP MOSUNNY   48  30  49 NE9       30.26F
ERIE MUNI ARPT FAIR      50  30  45 CALM      30.25F
BOULDER MUN AP FAIR      52  30  43 N8        30.24F
CENTENNIAL     FAIR      59  31  34 N8        30.22F
BROOMFIELD     MOSUNNY   52  28  40 N5        30.27
FORT COLLINS   FAIR      46  28  49 E12       30.27F
LONGMONT       FAIR      54  29  38 NE8       30.27F
$$

COZ041-046-047-076>085-087-088-122200-
...PIKES PEAK/PALMER DIVIDE AND SOUTHERN FOOTHILLS...

CITY           SKY/WX    TMP DP  RH WIND       PRES   REMARKS
COLO. SPRINGS  FAIR      53  27  36 E12       30.26F
A. F. ACADEMY  FAIR      54  26  32 SE9       30.25F
SCHRIEVER AFB  FAIR      53  26  35 SE7       30.26F
ELLICOTT       FAIR     N/A N/A N/A S10       30.26F
FALCON         FAIR      54  26  34 SE3       30.29F
FORT CARSON    FAIR      55  30  37 E6        30.23F
LIMON          FAIR      52  30  43 S8        30.25F
MONUMENT HILL  FAIR      50  28  43 CALM      30.29F
TRINIDAD       FAIR      68  17  14 E5        30.25F
$$

COZ042>045-048>051-090-091-122200-
...NORTHEAST COLORADO...

CITY           SKY/WX    TMP DP  RH WIND       PRES   REMARKS
GREELEY ARPT   FAIR      46  32  57 SE6       30.27F
AKRON          FAIR      39  33  79 E16       30.28F
BURLINGTON     PTSUNNY   44  35  70 E17       30.29F
WRAY           PTSUNNY   39  32  75 E13       30.34F
STERLING       FAIR      45  34  65 E13       30.29F
HOLYOKE        CLOUDY    36  32  87 E12       30.34F FOG
FORT MORGAN    FAIR      49  33  55 E15G21    30.27F
$$

COZ086-089-092>099-122200-
...SOUTHEAST COLORADO...

CITY           SKY/WX    TMP DP  RH WIND       PRES   REMARKS
PUEBLO         FAIR      63  25  23 SE8       30.21F
LA JUNTA       FAIR      64  30  27 E9        30.22F
LAMAR          FAIR      65  30  27 SE14G22   30.22F
SPRINGFIELD      N/A     63  25  23 S16       30.26F
$$



USA.gov is the U.S. government's official web portal to all federal, state and local government web resources and services.